TIME,DELAY(SENSOR),PRES,OXYGEN,RAWTEMP,T(OPTODE),TCPHASE,FLUOR,BETA(BETA700),BETA(BETA412),BETA(BETA440),CDOM,C(CSC),ED(ED412.20),ED(ED444.00),ED(ED489.60),ED(ED554.30),LU(LU412.10),LU(LU443.90),LU(LU489.70),LU(LU554.70),COMP,TILTX,TILTY,CHECK
1354763858,5808,881.5800170898438000,33.3152313232421900,560.6126708984375000,4.4669060707092285,56.5615501403808600,55,100,102,77,81,15548,0,0,0,0,2147124736,2147772845,2147575917,2147571401,674,2,13,3063
1354767454,5809,942.4400024414062000,38.3899497985839840,566.8577880859375000,4.2731628417968750,55.8221092224121100,55,99,101,79,83,15544,0,0,0,0,2147125814,2147776365,2147572992,2147573449,376,3,13,52215
1354771054,5812,954.4799804687500000,40.1806602478027340,567.9016723632812000,4.2407488822937010,55.5689697265625000,54,102,101,78,81,15544,0,0,0,0,2147122112,2147771986,2147576713,2147569097,3527,3,13,57564
1354774654,5810,980.4699707031250000,41.1130409240722660,570.6159057617188000,4.1564202308654785,55.4544296264648440,54,99,101,78,81,15544,0,0,0,0,2147122532,2147778029,2147574400,2147567168,192,2,13,6587
1354778254,5808,985.7999877929688000,41.3818206787109400,571.1569213867188000,4.1396031379699710,55.4269294738769500,55,98,100,78,82,15543,0,0,0,0,2147124242,2147775442,2147575872,2147568813,241,3,13,4102
1354781854,5810,993.9099731445312000,40.9083900451660160,570.9979248046875000,4.1445469856262210,55.4887504577636700,57,97,100,78,82,15544,0,0,0,0,2147123145,2147773229,2147572425,2147569810,156,3,13,28471
1354785454,5809,1003.6900024414062000,39.4581794738769500,570.0051269531250000,4.1754021644592285,55.7004394531250000,54,99,101,76,82,15540,0,0,0,0,2147122395,2147775277,2147577718,2147568539,196,3,13,14889
1354789054,5807,1002.1199951171875000,39.3627281188964840,569.3516235351562000,4.1957068443298340,55.7067604064941400,54,98,100,78,82,15545,0,0,0,0,2147121033,2147777563,2147574034,2147568566,3574,3,13,41668
1354792654,5809,1007.5200195312500000,39.4454689025878900,569.8864746093750000,4.1790871620178220,55.6954116821289060,55,98,99,78,83,15541,0,0,0,0,2147123776,2147771794,2147574710,2147571291,782,2,13,25346
1354796254,5807,1002.5300292968750000,39.2067909240722660,570.0928955078125000,4.1726741790771480,55.7376594543457000,55,98,100,77,83,15543,0,0,0,0,2147123977,2147778916,2147577938,2147570459,3481,2,13,11044
1354799854,5808,1001.9699707031250000,40.7022514343261700,569.8914794921875000,4.1789298057556150,55.5087890625000000,54,100,100,78,82,15541,0,0,0,0,2147123684,2147773988,2147575396,2147569417,3514,3,13,55608
1354803454,5812,1007.8099975585938000,39.2855911254882800,569.3952026367188000,4.1943531036376950,55.7115097045898440,56,98,100,78,83,15540,0,0,0,0,2147123556,2147779026,2147574317,2147568859,3594,3,13,57480
1354807054,5808,1010.0399780273438000,38.8656616210937500,569.9542236328125000,4.1769828796386720,55.7881202697753900,55,99,101,80,82,15539,0,0,0,0,2147128566,2147770230,2147572717,2147571190,3510,2,13,56120
1354810654,5812,1000.0999755859375000,39.1766891479492200,570.2487792968750000,4.1678299903869630,55.7420310974121100,55,98,101,77,82,15540,0,0,0,0,2147121188,2147773888,2147575149,2147569033,2870,2,13,63726
1354814254,5810,994.0700073242188000,40.9233818054199200,571.4500122070312000,4.1304950714111330,55.4916801452636700,55,97,101,77,82,15539,0,0,0,0,2147122541,2147777270,2147581476,2147568658,70,3,13,28219
1354817854,5809,987.9400024414062000,42.2690010070800800,572.1209716796875000,4.1096320152282715,55.2999992370605500,55,98,101,78,82,15536,0,0,0,0,2147125257,2147771236,2147579538,2147570971,570,2,13,44565
1354821454,5813,991.5000000000000000,42.7351493835449200,572.1577148437500000,4.1084899902343750,55.2327117919921900,56,99,99,77,82,15541,0,0,0,0,2147123282,2147773366,2147576585,2147570148,60,3,13,12300
1354825054,5808,990.3599853515625000,42.8490791320800800,572.1641845703125000,4.1082859039306640,55.2176284790039060,56,98,101,76,82,15536,0,0,0,0,2147123958,2147773229,2147577115,2147570816,3300,2,13,48647
1354828654,5813,994.9199829101562000,42.7051200866699200,572.4221191406250000,4.1002669334411620,55.2406616210937500,55,98,100,77,83,15539,0,0,0,0,2147122861,2147774418,2147573147,2147569664,3486,2,13,14016
1354832254,5809,994.7600097656250000,42.5403594970703100,572.1110839843750000,4.1099381446838380,55.2650604248046900,54,98,100,78,82,15539,0,0,0,0,2147124827,2147773494,2147577691,2147569874,3558,2,13,19437
1354835854,5809,1007.1699829101562000,42.2933311462402340,571.5048217773438000,4.1287899017333980,55.2914695739746100,55,100,102,78,83,15537,0,0,0,0,2147126336,2147776100,2147575542,2147569792,457,2,13,44995
1354839454,5809,1001.5999755859375000,41.6266403198242200,571.6328125000000000,4.1248087882995605,55.3941383361816400,55,101,100,78,82,15537,0,0,0,0,2147122980,2147775680,2147574537,2147569435,208,3,13,43067
1354843054,5810,999.4299926757812000,41.6772994995117200,571.6193847656250000,4.1252250671386720,55.3825798034668000,54,98,100,77,82,15536,0,0,0,0,2147124507,2147775780,2147573321,2147573238,742,3,13,39837
1354846654,5810,998.4500122070312000,41.8117103576660160,571.6102294921875000,4.1255130767822270,55.3634986877441400,54,98,100,78,83,15537,0,0,0,0,2147123913,2147773366,2147576841,2147568941,402,3,13,3789
1354850254,5809,1004.0000000000000000,41.7421607971191400,571.7744140625000000,4.1204071044921875,55.3744087219238300,54,98,101,79,82,15538,0,0,0,0,2147126189,2147774070,2147577206,2147568466,206,3,13,32725
1354853854,5812,1009.8099975585938000,42.0714988708496100,571.4243164062500000,4.1312899589538570,55.3234596252441400,56,99,101,78,82,15536,0,0,0,0,2147120256,2147773558,2147575533,2147571574,3367,3,13,45861
1354857454,5810,1000.5999755859375000,41.2069396972656250,570.8867797851562000,4.1479988098144530,55.4478187561035160,54,98,101,78,81,15535,0,0,0,0,2147121920,2147775597,2147573120,2147569481,3201,2,13,14621
1354861054,5810,1004.6400146484375000,41.7392807006835940,571.7576904296875000,4.1209259033203125,55.3727684020996100,55,98,101,78,82,15535,0,0,0,0,2147123757,2147774564,2147576301,2147571136,3519,2,13,39615
1354864654,5810,1013.2899780273438000,41.9961891174316400,571.0255126953125000,4.1436882019042970,55.3329010009765600,55,98,100,77,82,15535,0,0,0,0,2147125312,2147776201,2147576457,2147570752,3421,3,13,46791
1354868254,5809,1014.2000122070312000,41.1460494995117200,570.3496704101562000,4.1646919250488280,55.4450111389160160,55,100,100,78,81,15535,0,0,0,0,2147123565,2147766692,2147578889,2147569536,37,3,13,1735
1354871854,5809,1013.6900024414062000,40.7511711120605500,569.9321899414062000,4.1776680946350100,55.5064506530761700,55,98,100,78,81,15527,0,0,0,0,2147121106,2147769398,2147573211,2147570505,253,3,13,32025
1354875454,5811,1012.1400146484375000,40.6277389526367200,570.2232055664062000,4.1686248779296875,55.5273895263671900,54,97,100,78,82,15536,0,0,0,0,2147122998,2147777545,2147572608,2147569371,241,3,13,43190
1354879054,5811,1011.7899780273438000,40.7346992492675800,570.5590209960938000,4.1581897735595700,55.5087089538574200,54,97,100,78,82,15534,0,0,0,0,2147124617,2147773211,2147576978,2147570678,15,3,13,56824
1354882654,5810,1007.4799804687500000,40.9393997192382800,570.9860839843750000,4.1449131965637210,55.4850807189941400,54,99,100,78,81,15534,0,0,0,0,2147121737,2147769956,2147573028,2147565924,3058,2,13,881
1354886254,5808,1010.7899780273438000,41.4242286682128900,571.1522216796875000,4.1397509574890140,55.4149513244628900,55,99,100,78,82,15533,0,0,0,0,2147126427,2147770651,2147576219,2147569289,102,3,13,39979
1354889854,5808,1014.1300048828125000,41.2433700561523440,570.7540283203125000,4.1521282196044920,55.4371795654296900,54,98,100,79,82,15536,0,0,0,0,2147122221,2147775085,2147575296,2147568448,3562,3,13,41118
1354893454,5809,1005.9099731445312000,41.8699417114257800,571.1567993164062000,4.1396059989929200,55.3499908447265600,54,123,101,78,82,15534,0,0,0,0,2147121965,2147772516,2147572964,2147567305,49,3,13,45816
1354897054,5810,1005.0100097656250000,42.0685195922851560,571.0379028320312000,4.1433029174804690,55.3230400085449200,54,98,100,77,82,15534,0,0,0,0,2147125010,2147772132,2147574518,2147568448,3409,2,13,51575
1354900654,5811,1001.7100219726562000,42.8029289245605500,571.4572753906250000,4.1302638053894040,55.2208709716796900,55,100,101,78,82,15535,0,0,0,0,2147124763,2147774610,2147572489,2147567917,3441,2,13,33376
1354904254,5808,997.3900146484375000,41.9342994689941400,571.5366210937500000,4.1277999877929690,55.3450393676757800,56,101,100,77,82,15535,0,0,0,0,2147124224,2147769572,2147575387,2147567972,125,2,13,27057
1354907854,5810,996.5999755859375000,42.4469490051269500,572.4053955078125000,4.1007862091064450,55.2772483825683600,55,100,101,77,83,15532,0,0,0,0,2147126518,2147772059,2147580251,2147569627,68,3,13,59399
1354908355,5811,996.9799804687500000,42.4443092346191400,572.4307861328125000,4.0999970436096190,55.2808799743652340,54,101,100,79,83,15532,0,0,0,0,2147127798,2147773714,2147574016,2147567981,184,3,13,57801
